Eugene, OR

9:37 PM PDT on April 25, 2017 (GMT -0700)
Mahlon Sweet

Weather History for KEUG - March, 2013

Change the Weather History Date:

Tuesday, March 19, 2013

  Actual Average Record
Temperature  
Mean Temperature 46 °F 47 °F  
Max Temperature 53 °F 57 °F 75 °F (1978)
Min Temperature 39 °F 37 °F 27 °F (1965)
Degree Days  
Heating Degree Days 19 18  
Month to date heating degree days 333 361  
Since 1 July heating degree days 3425 3688  
Cooling Degree Days 0 0  
Month to date cooling degree days 0 0  
Year to date cooling degree days 0 0  
Moisture  
Dew Point 41 °F    
Average Humidity 86    
Maximum Humidity 100    
Minimum Humidity 71    
Precipitation  
Precipitation 0.46 in 0.15 in 1.27 in (1938)
Month to date precipitation 1.52 3.18  
Year to date precipitation 4.48 15.48  
Snow  
Snow 0.00 in - - ()
Month to date snowfall 0.0  
Since 1 July snowfall 0.0  
Snow Depth 0.00 in    
Sea Level Pressure  
Sea Level Pressure 29.95 in    
Wind  
Wind Speed 3 mph (NNE)    
Max Wind Speed 14 mph    
Max Gust Speed 17 mph    
Visibility 8 miles    
Events Rain    
T = Trace of Precipitation, MM = Missing Value Source: NWS Daily Summary

Daily Weather History Graph

Daily Weather History Graph

Search for Another Location

Airport or City:

Trip Planner

Search our weather history database for the weather conditions in past years. The results will help you decide how hot, cold, wet, or windy it might be!

Date:

Astronomy

Mar. 19, 2013 Rise Set
Actual Time 7:17 AM PDT 7:24 PM PDT
Civil Twilight 6:48 AM PDT 7:53 PM PDT
Nautical Twilight 6:14 AM PDT 8:27 PM PDT
Astronomical Twilight 5:40 AM PDT 9:01 PM PDT
Moon 12:00 PM PDT (3/19) 2:27 AM PDT (3/19)
Length of Visible Light 13h 04m
Length of Day
12h 07m
Waxing Crescent, 51% of the Moon is Illuminated
Mar 19
Waxing Crescent
Mar 27
Full
Apr 2
Last Quarter
Apr 10
New
Apr 18
First Quarter

Hourly Weather History & Observations

Time (PDT) Temp. Windchill Dew Point Humidity Pressure Visibility Wind Dir Wind Speed Gust Speed Precip Events Conditions
12:54 AM 41.0 °F 38.0 °F 34.0 °F 76% 30.12 in 10.0 mi NNE 4.6 mph - N/A   Clear
1:54 AM 39.9 °F 36.7 °F 34.0 °F 79% 30.11 in 10.0 mi NNE 4.6 mph - N/A   Clear
2:54 AM 39.0 °F 36.8 °F 35.1 °F 86% 30.11 in 10.0 mi ESE 3.5 mph - N/A   Clear
3:54 AM 39.0 °F 35.7 °F 34.0 °F 82% 30.09 in 10.0 mi NNE 4.6 mph - N/A   Mostly Cloudy
4:54 AM 39.0 °F 36.8 °F 35.1 °F 86% 30.08 in 10.0 mi North 3.5 mph - N/A   Mostly Cloudy
5:54 AM 39.9 °F - 36.0 °F 86% 30.07 in 10.0 mi Calm Calm - N/A   Overcast
6:54 AM 39.9 °F - 36.0 °F 86% 30.06 in 10.0 mi Calm Calm - N/A   Overcast
7:54 AM 39.9 °F - 37.0 °F 89% 30.07 in 10.0 mi Calm Calm - N/A   Overcast
8:54 AM 42.1 °F - 37.0 °F 82% 30.06 in 10.0 mi Calm Calm - N/A   Overcast
9:54 AM 43.0 °F - 37.9 °F 82% 30.05 in 10.0 mi Calm Calm - N/A   Overcast
10:54 AM 46.0 °F - 39.0 °F 76% 30.03 in 10.0 mi Calm Calm - N/A   Overcast
11:54 AM 46.9 °F - 39.0 °F 74% 30.02 in 10.0 mi Calm Calm - N/A   Overcast
12:54 PM 48.0 °F - 39.0 °F 71% 29.99 in 10.0 mi Calm Calm - N/A   Overcast
1:54 PM 50.0 °F - 41.0 °F 71% 29.96 in 10.0 mi North 3.5 mph - N/A   Overcast
2:54 PM 48.9 °F - 42.1 °F 77% 29.92 in 10.0 mi North 3.5 mph - 0.00 in Rain Light Rain
3:54 PM 48.0 °F - 44.1 °F 86% 29.91 in 7.0 mi NNE 3.5 mph - 0.04 in Rain Light Rain
4:54 PM 48.0 °F - 44.1 °F 86% 29.89 in 6.0 mi Calm Calm - 0.02 in Rain Light Rain
5:54 PM 46.9 °F - 45.0 °F 93% 29.84 in 5.0 mi Calm Calm - 0.04 in Rain Light Rain
6:54 PM 46.9 °F - 46.0 °F 97% 29.80 in 3.0 mi Calm Calm - 0.03 in Rain Light Rain
7:54 PM 48.0 °F - 46.0 °F 93% 29.77 in 3.0 mi SSW 4.6 mph - 0.02 in Rain Light Rain
8:54 PM 48.0 °F - 46.0 °F 93% 29.76 in 3.0 mi West 4.6 mph - 0.09 in Rain Light Rain
9:54 PM 48.0 °F - 46.9 °F 96% 29.73 in 3.0 mi SSE 3.5 mph - 0.06 in Rain Light Rain
10:54 PM 48.9 °F - 48.0 °F 97% 29.72 in 5.0 mi South 4.6 mph - 0.02 in Rain Light Rain
11:54 PM 52.0 °F - 50.0 °F 93% 29.71 in 10.0 mi South 12.7 mph - 0.06 in Rain Light Rain